Theta_e
336 337 334 333 335 335 335 332 327 325 325 327 324 329 329 330 332 333 331 328 329 331 331 333 334 335 334 335 335 335 337 339 344 346 342 346 341 342
331 335 333 330 330 330 330 332 331 326 324 324 322 328 332 329 330 333 332 333 329 329 329 329 330 330 329 330 330 331 330 331 332 333 335 336 337 339
333 331 329 330 325 325 328 329 328 329 321 321 323 328 330 330 330 330 327 329 327 328 326 327 327 327 327 326 326 326 327 326 327 327 328 329 330 330
327 328 326 324 327 327 322 327 326 329 322 322 326 324 328 330 332 330 327 326 326 322 324 325 326 325 326 326 325 324 324 323 323 323 324 324 325 326
327 327 327 328 327 326 326 323 322 323 325 321 320 324 326 327 328 330 329 329 325 326 325 324 323 323 323 324 324 323 322 321 321 321 321 322 322 323
328 328 328 328 328 329 328 329 328 324 326 322 322 323 324 328 325 323 322 324 325 324 328 326 324 323 323 321 322 323 322 321 319 319 319 319 319 320
328 329 330 329 325 326 326 329 329 325 322 320 320 320 320 321 322 323 321 323 326 328 325 324 324 325 325 324 324 324 323 324 322 320 318 318 318 318
328 329 326 324 323 322 322 321 327 330 327 323 321 322 326 325 324 323 322 320 317 326 324 322 322 321 324 324 324 324 322 322 324 322 321 320 320 319
328 326 323 323 327 327 319 318 318 317 319 330 327 327 327 328 328 326 325 322 320 323 324 319 321 319 323 324 326 323 322 321 321 322 321 319 318 317
327 327 326 328 328 328 329 330 330 330 331 327 331 330 328 328 327 325 326 328 323 320 325 314 320 317 321 323 325 327 323 321 320 320 319 317 314 313
327 328 329 329 322 320 330 329 330 331 320 318 319 320 319 319 319 320 315 313 312 315 322 318 317 316 319 320 323 324 321 319 318 317 317 315 312 311
328 330 323 326 321 319 327 330 327 327 329 330 330 324 322 324 319 323 318 313 313 312 318 312 311 313 312 319 322 322 323 318 316 315 314 314 312 318
324 325 325 320 318 315 313 327 326 327 326 327 324 322 322 321 320 320 322 316 311 310 315 314 311 312 312 312 317 318 319 320 321 319 312 311 312 312
324 325 326 317 318 313 314 318 317 317 326 324 321 320 319 319 319 319 321 320 318 317 319 318 311 310 308 307 308 313 316 318 318 317 318 315 311 310
326 322 315 314 312 312 313 317 316 324 324 322 321 320 320 320 321 320 320 322 325 320 315 316 312 313 309 306 306 308 309 313 316 316 317 317 317 318
317 322 321 317 311 313 319 321 325 326 324 322 321 321 321 319 317 317 313 313 312 312 318 317 315 313 307 307 307 306 309 310 314 316 317 317 317 318
321 322 319 320 320 322 325 326 327 326 324 323 322 320 319 318 317 316 313 312 310 310 309 310 314 314 311 313 310 312 312 313 315 315 317 314 315 317
319 319 318 319 319 320 322 324 325 324 324 323 322 320 318 317 316 315 313 311 310 310 308 308 308 306 307 314 318 312 312 312 313 316 316 311 312 315
318 320 320 320 318 319 321 322 322 325 330 324 323 320 318 317 315 314 313 311 310 309 307 307 306 305 302 302 310 314 311 311 312 312 312 311 310 312
318 320 320 321 321 320 321 322 322 324 324 324 323 320 318 317 315 314 312 310 309 307 306 307 307 307 305 304 306 311 309 312 312 310 311 312 313 313
317 321 321 322 323 323 323 323 324 323 323 323 322 320 318 317 315 315 312 304 304 306 304 305 308 309 312 313 308 309 313 309 314 313 311 309 308 308
321 321 322 324 324 324 324 324 324 324 324 324 322 320 319 317 315 314 311 308 307 305 305 306 311 310 309 308 307 309 309 312 313 311 311 310 309 304
324 324 324 324 324 324 325 324 324 323 324 324 322 320 319 316 316 315 311 308 306 305 305 306 308 308 308 309 307 309 311 310 309 309 311 312 310 310
Wind_Speed
4 3 2 3 3 2 2 3 6 2 5 6 4 8 6 7 9 8 9 13 15 15 15 15 15 15 16 14 13 13 12 11 12 10 12 9 13 13
4 4 3 4 3 3 3 2 2 4 2 4 5 6 7 5 7 6 6 5 13 13 13 12 12 13 13 13 13 12 12 13 14 13 10 3 4 8
6 6 6 3 4 4 3 3 4 3 5 4 5 5 5 6 6 6 5 6 9 10 10 11 11 11 10 11 10 10 11 11 10 10 9 7 7 9
7 6 6 5 5 4 6 6 6 4 5 4 4 4 5 4 5 5 6 5 4 7 4 6 7 8 8 8 8 8 8 9 9 8 8 8 9 10
7 6 6 6 5 6 6 4 5 3 2 4 5 4 4 6 4 4 3 3 4 11 9 7 5 2 3 4 4 4 5 6 6 6 7 7 8 9
8 6 6 5 5 5 5 5 4 5 4 4 4 4 3 2 5 6 5 6 5 6 3 1 7 10 9 7 4 3 1 1 3 3 4 4 4 5
7 8 7 7 8 8 3 6 3 3 4 4 4 5 6 5 7 6 6 7 4 3 6 8 6 5 5 12 5 8 5 5 5 5 4 3 3 4
9 8 8 8 7 7 7 6 6 4 5 6 4 4 6 6 7 8 7 8 8 4 7 8 8 6 6 6 7 2 7 9 9 7 7 7 8 8
9 9 8 7 6 6 5 5 5 2 3 4 4 5 5 7 7 8 8 8 7 8 6 8 8 7 6 6 8 8 9 9 11 9 8 8 8 9
9 8 7 8 5 3 3 2 1 4 4 5 2 4 4 5 6 7 7 8 9 6 4 8 7 8 8 8 5 8 8 7 8 8 9 9 8 8
8 7 7 7 7 2 4 1 1 2 7 2 4 4 4 3 6 8 7 8 8 8 5 6 9 10 9 9 4 10 9 10 10 8 8 9 8 10
9 7 4 3 7 2 5 2 3 4 3 4 7 8 9 8 9 4 7 8 8 8 7 8 10 11 9 9 4 8 7 11 12 13 13 13 10 8
8 8 8 9 4 3 4 6 4 5 3 6 5 4 4 5 4 4 5 7 7 8 9 9 10 10 9 10 9 9 8 5 8 6 13 15 8 9
7 6 5 10 7 5 7 2 2 5 7 5 5 6 6 7 7 6 5 7 6 8 10 8 9 10 10 11 11 9 9 8 8 9 9 5 16 16
6 6 13 9 6 8 8 5 7 7 5 5 5 6 6 5 5 7 5 7 9 9 5 5 8 10 10 11 11 11 10 9 8 8 9 9 9 9
6 6 6 3 4 4 5 6 6 5 4 5 5 6 6 6 7 6 7 8 9 9 8 5 6 9 10 10 11 11 10 10 9 9 8 10 10 11
9 8 8 8 8 7 6 5 5 5 5 5 5 6 7 7 7 7 7 8 9 10 10 9 7 9 10 11 10 9 8 9 9 9 9 11 11 11
9 8 9 8 7 7 5 5 5 4 5 5 6 6 7 7 7 8 8 8 9 10 10 10 10 9 9 10 15 8 8 9 10 10 7 11 12 11
10 8 8 7 7 7 6 5 6 4 2 6 6 6 7 7 6 8 9 9 9 10 10 10 10 9 10 10 8 10 9 10 10 9 9 12 12 13
11 8 8 7 7 6 6 6 5 5 5 5 6 6 6 7 8 9 9 10 10 11 10 9 8 8 10 12 12 11 15 9 11 7 11 13 14 15
12 9 8 7 6 6 6 5 6 7 6 6 6 6 6 7 8 9 9 8 7 10 10 10 8 2 10 10 11 11 10 11 11 6 11 13 13 12
10 10 9 7 5 5 5 6 7 7 7 7 7 6 6 7 8 9 9 10 10 10 10 9 9 9 9 10 11 13 10 8 7 16 20 19 10 10
10 9 8 6 6 6 6 7 7 8 8 6 6 6 6 7 7 8 9 9 9 9 10 9 9 9 10 10 9 5 11 12 11 11 7 12 11 13
Wind_Direction
93 59 5 51 43 35 359 330 325 305 97 88 26 41 18 47 9 42 49 43 39 38 38 42 47 51 52 54 56 52 47 33 24 25 76 199 243 274
84 74 15 45 61 42 35 36 4 324 95 33 73 31 19 37 51 29 34 116 54 32 33 37 44 49 51 52 49 47 52 54 52 53 53 45 311 315
94 94 81 23 56 59 50 47 51 5 98 103 73 57 62 34 28 10 42 1 85 47 34 29 27 33 46 51 52 50 44 44 47 51 53 41 17 8
113 110 98 87 98 68 75 39 44 29 97 94 28 112 40 37 21 7 346 15 11 97 87 60 38 31 29 37 44 45 41 36 31 27 28 22 14 3
123 115 106 101 73 74 40 63 92 84 92 81 100 59 71 24 17 52 34 353 333 158 171 152 116 79 27 28 46 54 48 40 40 47 38 30 17 10
127 124 117 110 110 99 88 96 74 118 126 110 86 102 52 97 15 17 354 4 355 343 9 344 184 181 195 197 204 213 286 1 33 47 40 41 50 38
140 143 121 83 49 28 77 66 122 78 81 77 61 60 40 9 21 354 345 352 345 344 350 324 327 323 175 210 199 204 231 254 259 268 280 296 290 301
160 117 125 133 106 69 62 36 23 58 49 3 49 37 36 1 11 347 334 349 335 50 331 314 323 311 312 308 113 193 243 254 253 256 271 286 291 291
153 154 167 125 164 138 160 180 195 234 318 337 348 7 336 356 338 325 354 324 320 318 292 323 312 325 316 313 164 210 229 257 252 246 254 264 273 282
164 167 136 154 130 174 180 162 146 165 181 251 334 331 329 335 318 307 288 270 275 296 1 300 324 317 319 301 264 211 223 251 253 252 260 262 266 275
168 174 170 167 136 239 251 128 229 124 141 177 261 277 277 268 296 305 348 314 323 330 24 336 321 317 316 300 307 161 205 215 223 239 256 259 257 261
177 178 291 277 149 215 295 294 270 60 321 168 195 213 221 182 197 305 319 322 322 319 47 328 314 313 307 293 279 295 283 200 215 215 227 239 237 281
191 187 190 184 198 182 269 283 332 336 190 258 274 322 340 337 333 7 314 306 320 315 356 329 305 299 295 299 299 300 295 277 271 267 228 241 187 239
207 193 149 151 175 207 238 102 216 255 254 296 319 347 343 334 351 346 320 299 309 296 299 300 295 304 306 298 297 305 297 296 300 294 295 286 206 218
209 85 115 153 198 232 231 239 228 229 265 290 325 332 342 337 293 279 296 289 271 285 301 299 301 307 300 294 297 300 308 293 294 288 293 290 296 306
134 157 150 213 279 332 198 198 236 255 291 307 315 314 315 321 319 323 315 317 316 315 332 290 274 280 291 294 295 297 299 293 298 292 320 311 292 282
175 180 202 212 222 219 214 233 232 221 236 263 288 309 321 322 320 322 314 309 308 319 320 321 326 287 272 277 282 283 293 295 304 316 312 307 299 289
201 199 210 215 224 231 236 240 228 200 260 266 287 304 317 318 319 319 300 310 312 319 321 320 319 309 299 281 227 282 306 315 316 321 294 285 298 318
222 212 220 215 220 227 238 253 269 300 352 269 286 301 306 307 296 315 315 314 314 322 323 317 312 309 307 305 317 216 309 307 302 313 308 305 307 308
222 224 216 221 219 224 239 251 268 278 251 258 284 293 299 303 306 311 314 318 322 320 309 305 310 321 324 318 316 302 245 262 278 318 299 318 309 290
214 228 228 221 213 218 239 264 279 278 286 284 273 279 289 299 306 311 317 308 297 300 311 314 328 267 277 266 269 288 312 210 224 280 293 292 305 317
213 215 218 214 222 240 259 262 261 251 239 242 251 275 297 301 305 313 315 317 311 313 311 312 311 304 300 291 294 303 330 337 285 244 247 253 309 326
219 208 198 201 217 236 253 249 249 255 264 253 270 282 293 299 304 309 312 310 310 315 306 305 307 310 298 295 299 325 290 308 299 302 312 139 193 228